Flag for Germany Weather past 2 weeks in Oranienburg, Brandenburg, Germany

Now
42 °F

Overcast.


Feels Like: 37 °F
Forecast: 35 / 44 °F
Wind: 9 mph from West

Location: Berlin-Tegel

Current Time: Apr 1, 2015 at 1:06:08 PM

Latest Report: Apr 1, 2015 at 12:00 PM


Visibility: 22 mi

Pressure: 29.69 "Hg

Humidity: 72%

Dew point: 34 °F

Location of OranienburgLocation

Historic Weather in Oranienburg — Graph

°F

Oranienburg temperature yesterday

Maximum temperature yesterday: 51 °F (at 1:00 PM)
Minimum temperature yesterday: 34 °F (at 9:00 AM)
Average temperature yesterday: 42 °F

Past Weeks' High & Low Weather Summary

 TemperatureHumidityPressure
High62 °F (Mar 17, 4:00 PM)99% (Mar 31, 9:00 AM)30.43 "Hg (Mar 31, 9:00 AM)
Low28 °F (Mar 20, 6:00 AM)17% (Mar 18, 2:00 PM)29.03 "Hg (Mar 30, 1:00 AM)
Average45 °F66%29.91 "Hg
* Reported Mar 17 11:00 AM — Apr 1 12:00 Noon, Oranienburg, Weather by CustomWeather, © 2015

Note: Actual official high and low records may vary slightly from our data, if they occured in-between our weather recording intervals... More about our weather records

Advertising

Oranienburg weather history for previous 24 hours

 ConditionsComfort  
Time TempWeatherWind HumidityBarometerVisibility
12:00 PM
Wed, Apr 1
42 °FOvercast.9 mph72%29.69 "Hg22 mi
11:00 AM40 °FSprinkles. Overcast.12 mph80%29.68 "Hg22 mi
10:00 AM39 °FLight rain. Overcast.10 mph83%29.66 "Hg19 mi
9:00 AM38 °FLight rain. Overcast.8 mph89%29.64 "Hg12 mi
8:00 AM39 °FLight rain. Overcast.9 mph83%29.61 "Hg19 mi
7:00 AM39 °FLight rain. Overcast.10 mph81%29.58 "Hg25 mi
6:00 AM39 °FOvercast.9 mph82%29.56 "Hg19 mi
5:00 AM39 °FChilly.9 mph82%29.53 "HgN/A
4:00 AM39 °FOvercast.9 mph79%29.50 "Hg25 mi
3:00 AM39 °FPassing clouds.10 mph79%29.47 "Hg25 mi
2:00 AM39 °FOvercast.10 mph78%29.47 "Hg25 mi
1:00 AM40 °FOvercast.12 mph75%29.44 "Hg25 mi
12:00 AM43 °FPassing clouds.13 mph60%29.41 "Hg19 mi
11:00 PM
Tue, Mar 31
44 °FOvercast.16 mph61%29.38 "Hg25 mi
10:00 PM43 °FOvercast.13 mph72%29.35 "Hg25 mi
9:00 PM44 °FLight rain. Low clouds.N/A70%29.32 "Hg12 mi
8:00 PM44 °FLight rain. Overcast.17 mph73%29.26 "Hg25 mi
7:00 PM44 °FSprinkles. Overcast.17 mph83%29.23 "Hg22 mi
6:00 PM45 °FRain showers. Overcast.14 mph80%29.18 "Hg12 mi
5:00 PM49 °FOvercast.16 mph64%29.15 "Hg25 mi
4:00 PM50 °FSprinkles. Overcast.13 mph62%29.12 "Hg25 mi
3:00 PM50 °FOvercast.20 mph66%29.09 "Hg25 mi
2:00 PM51 °FOvercast.17 mph70%29.06 "Hg25 mi
1:00 PM51 °FOvercast.15 mph68%29.06 "Hg25 mi
Weather by CustomWeather, © 2015

See weather overviewHow to use our weather pages